Regional Weather Roundup
Issued by NWS

Home | Current Version | Previous Version | Text Only | Print | Product List | Glossary On
Versions: 1 2 3 4 5 6 7 8 9 10 11 12 13 14 15 16 17 18 19 20 21 22 23 24 25 26 27 28 29 30 31 32 33 34 35 36 37 38 39 40 41 42 43 44 45 46 47 48 49 50
000
ASHW40 PHFO 180143
RWRHI

WEATHER ROUNDUP FOR HAWAII
NATIONAL WEATHER SERVICE HONOLULU HI
300 PM HST FRI NOV 17 2017

THIS IS AN AUTOMATED REPORT THAT HAS NOT BEEN QUALITY CONTROLLED.

NOTE..."FAIR" INDICATES FEW OR NO CLOUDS BELOW 12,000 FEET WITH NO
SIGNIFICANT WEATHER AND/OR OBSTRUCTIONS TO VISIBILITY.

* - THESE SITES REPORT LIMITED FIELDS
# - BUOY DATA PROVIDED BY PACIFIC ISLANDS OCEAN OBSERVING SYSTEM.

HIZ001>004-180200-
KAUAI-NIIHAU-

CITY           SKY/WX    TMP DP  RH WIND       PRES   REMARKS
LIHUE APT      CLOUDY    74  66  76 NW12      29.91F
PORT ALLEN*      N/A     81 N/A N/A SW6         N/A
POIPU*           N/A     81 N/A N/A NE6G13      N/A
PRINCEVILLE*     N/A     73 N/A N/A N5          N/A
KOKOLE POINT*  NOT AVBL
MOLOAA DAIRY*    N/A     81  66  61 N2G8        N/A
WAIMEA HTS*      N/A     81  64  57 S7          N/A
PUU OPAE*        N/A     64  63  94 NW2G10      N/A
PUU LUA*       NOT AVBL
MAKAHA RIDGE*    N/A     66  64  94 NE5G12      N/A
$$

HIZ005>011-180200-
OAHU-

CITY           SKY/WX    TMP DP  RH WIND       PRES   REMARKS
HONOLULU       PTSUNNY   80  63  55 SW10      29.87F
KALAELOA       PTSUNNY   80  64  58 SW10      29.88F
KANEOHE MCB    MOSUNNY   80  64  58 NE7       29.86F
WHEELER FIELD  LGT RAIN  74  65  73 CALM      29.91F
BELLOWS*         N/A    N/A N/A N/A NE9         N/A
KAHUKU*          N/A    N/A N/A N/A NE5G10      N/A
WHEELER*         N/A    N/A N/A N/A NE6         N/A
WAIANAE HARBOR   N/A    N/A N/A N/A SE1G10      N/A
DILLINGHAM*    NOT AVBL
KAHUKU TRN*      N/A     79  68  69 W6G14       N/A
KAWAILOA*        N/A     73  63  68 NE10G18     N/A
KII*             N/A     77  64  65 NE9         N/A
MAKUA RANGE*     N/A     82  66  57 W10G21      N/A
OAHU FOREST NW   N/A    N/A N/A N/A NE13G20     N/A
SCHOFIELD BRK*   N/A     79  66  65 MISG        N/A
SCHOFIELD S*   NOT AVBL
WAIANAE VLY*     N/A     72  66  83 NW7         N/A
KUAOKALA*        N/A     72  63  73 VRB14G25    N/A
HONOULIUULI*   NOT AVBL
MOKUOLOE IS*   NOT AVBL
PALEHUA*         N/A    N/A N/A N/A N2          N/A
WAIAWA PHB*    NOT AVBL
$$

HIZ012>013-180200-
MOLOKAI-

CITY           SKY/WX    TMP DP  RH WIND       PRES   REMARKS
MOLOKAI AIRPT  CLOUDY    75  65  70 NE12      29.90S
KALAUPAPA      NOT AVBL
MAKAPULAPAI*     N/A     75  66  73 SE5G13      N/A
MOLOKAI 1*       N/A    N/A N/A N/A VRB2        N/A
PUU ALII*        N/A     60  60  98 W1          N/A
$$

HIZ016-180200-
KAHOOLAWE-

CITY           SKY/WX    TMP DP  RH WIND       PRES   REMARKS
KAHOOLAWE*     NOT AVBL
HAKIOAWA*        N/A     74  64  70 MISG        N/A
HONOKANAIA*    NOT AVBL
KANELOA*         N/A     77  64  65 E13G22    29.95F
KEALIALALO*    NOT AVBL
LUA MAKIKA*    NOT AVBL
$$

HIZ014>015-180200-
LANAI-

CITY           SKY/WX    TMP DP  RH WIND       PRES   REMARKS
LANAI CITY     CLOUDY    72  63  73 N10       29.93F
LANAI 1*         N/A     72  63  73 NE10        N/A
$$

HIZ017>028-180200-
MAUI-

CITY           SKY/WX    TMP DP  RH WIND       PRES   REMARKS
KAHULUI        MOSUNNY   81  65  58 N14       29.88S
KAPALUA-W MAUI MOSUNNY   75  66  73 NE10      29.89
HANA AIRPORT   CLOUDY   N/A N/A N/A CALM      29.90S
HANA*            N/A     77 N/A N/A W1          N/A
HALEAKALA SUMM   N/A     45  37  76 NW7         N/A
MAALAEA BAY*     N/A     79 N/A N/A VRB14G21    N/A
HALEAKALA*     NOT AVBL
KAUPO GAP*     NOT AVBL
KULA 1*          N/A     53  53  98 W6          N/A
$$

HIZ023>026-180200-
BIG ISLAND OF HAWAII COAST AND LOWER SLOPES-

CITY           SKY/WX    TMP DP  RH WIND       PRES   REMARKS
KAILUA KONA    MOSUNNY   84  64  51 SW13      29.83F
HILO           MOSUNNY   77  62  59 NE8       29.87S
HONOKAA*         N/A     73 N/A N/A VRB1        N/A
KAWAIHAE MWT*    N/A     84 N/A N/A W7          N/A
KAWAIHAE*        N/A     81 N/A N/A S3        29.85S
SOUTH POINT*     N/A     75 N/A N/A NE12G17     N/A
UPOLU AIRPORT* NOT AVBL
KAMUELA*       CLOUDY    68  61  77 NE7       29.96S
HAKALAU*         N/A     55  53  91 NE3         N/A
KALOKO-HONOKO*   N/A     82  64  54 SW9G16    29.83F
PALI 2*          N/A     72  55  56 NW9G16      N/A
KEALAKOMO*       N/A    N/A N/A N/A E12G17      N/A
KAUPULEHU*       N/A     79  63  57 SW16G26     N/A
KAPAPALA*        N/A     74  57  55 SE5G12      N/A
LOWER KAHUKU*    N/A    N/A N/A N/A SE2G10      N/A
PUHE CS*         N/A     82  61  47 W3          N/A
PUHO CS*         N/A     85  64  48 SW3         N/A
PTA KEAMUKU*     N/A     66  59  77 W12G17      N/A
WAIKOLOA*        N/A     77  63  61 NW6G14      N/A
$$

HIZ027>028-180200-
BIG ISLAND OF HAWAII INTERIOR AND SUMMMITS-

CITY           SKY/WX    TMP DP  RH WIND       PRES   REMARKS
BRADSHAW FIELD MOSUNNY   65  47  51 W9        30.16R
MK VISITOR CEN   N/A     52  36  54 W12         N/A
MAUNA KEA*       N/A     36   9  32 SW63        N/A  WCI  18
MAUNA LOA*       N/A     46  37  71 MISG        N/A
MAUNA LOA 1*   NOT AVBL
PTA KIPUKA*      N/A     66  59  77 S8G16       N/A
PTA RANGE 17*    N/A     66  57  72 SE10G18     N/A
PTA WEST*        N/A     70  64  83 NW9G15      N/A
NENE CABIN*      N/A     54  54 100 S3G10       N/A
AHUMOA*          N/A     58  50  75 SW6G12      N/A
PTA PORTABLE*  NOT AVBL
PUU MALI*        N/A     52 N/A N/A W9          N/A
$$

HIC003-180200-
NORTHWEST ISLANDS-

CITY           SKY/WX    TMP DP  RH WIND       PRES   REMARKS
MIDWAY ISLAND  PTSUNNY   75  70  83 E22       30.08R
MIDWAY NOS*      N/A     73 N/A N/A MISG      30.07R
FRENCH FRIGATE NOT AVBL
$$

PHZ110>124-180-180200-
BUOY REPORTS

STATION/POSITION TIME  TEMP    WIND        PRES    WAVE   SWELL
                       AIR SEA DIR/SP/G            HT/PER HT/DIR
                 (UTC) (F)     (DEG/KT/KT) (MB)    (FT/S) (FT/D)
BUOY 51001       0120   74 78   20/ 16/ 19 1013.9
BUOY 51101       0050   74 78   10/ 16/ 19 1014.3F   8/ 9   5/ 50
BUOY 51100       NOT AVBL
BUOY 51002       0120   79 80   80/ 14/ 16 1009.9
BUOY 51003       0050   78 81   60/  8/ 12 1011.4F   7/ 8   7/ 70
BUOY 51004       0120   78 80   60/ 10/ 14 1009.8
WAIMEA BAY#      0102      77                N/A     6/12   5/ 20
MOKAPU POINT#    0104      80                N/A     7/10   3/ 40
LANAI#           NOT AVBL
BARBERS PT 2#    NOT AVBL
PAUWELA#         NOT AVBL
HILO#            0127      80                N/A     8/12   5
KANEOHE BAY#     NOT AVBL
KANEOHE BAY 2#   NOT AVBL
HANALEI#         0122      80                N/A     7/10   3/ 20
KAHULUI HARBOR   NOT AVBL
HONOLULU HARBOR  NOT AVBL
PEARL HARBOR#    0100      80                N/A     3/15   2/160
KILO NALU        NOT AVBL
HILO HARBOR      NOT AVBL
MOKUOLOE         NOT AVBL
NAWILIWILI       NOT AVBL
WHOTS BUOY       NOT AVBL
BUOY 51028       NOT AVBL
$$

......................KEY........................................
  SKY/WX - SKY CONDITIONS/PRESENT WEATHER
  TMP    - TEMPERATURE IN FAHRENHEIT
  DWPT   - DEWPOINT IN FAHRENHEIT
  RH     - RELATIVE HUMIDITY IN PERCENT
  WIND   - DIRECTION AND SPEED /MPH FOR ISLANDS...KTS FOR BUOYS/
  PRES   - MEAN SEA LEVEL PRESSURE IN INCHES OF HG
  VSB    - VISIBILITY IN MILES
  HX     - HEAT INDEX
  WCI    - WIND CHILL INDEX
  VRB    - VARIABLE WIND DIRECTION
  N/A    - NOT AVAILABLE




USA.gov is the U.S. government's official web portal to all federal, state and local government web resources and services.